Theta_e
346 337 341 339 339 339 337 334 335 336 336 331 331 329 333 334 331 330 327 325 324 326 327 340 341 339 336 333 333 334 334 334 335 337 336 333 332 335 336 332 337 338 338
342 344 338 348 344 337 335 331 328 327 325 334 334 330 342 339 339 335 329 325 325 326 340 339 337 338 335 334 333 334 334 333 336 335 336 336 328 335 333 331 336 336 335
345 349 338 342 348 343 338 334 328 330 336 342 339 328 341 341 341 341 333 327 324 325 337 336 338 336 332 326 325 327 329 332 333 336 335 334 333 336 333 333 335 334 334
345 349 346 336 343 344 340 331 337 332 340 343 339 329 336 340 341 341 339 330 325 326 339 335 335 334 327 325 326 326 328 331 336 337 336 335 333 332 332 332 333 334 335
345 348 350 346 341 344 338 328 331 332 340 341 338 337 339 337 337 339 340 333 328 326 330 331 331 331 325 327 327 324 327 335 337 338 334 332 332 331 331 329 333 333 333
345 347 348 345 346 342 335 330 345 339 341 340 337 328 336 337 337 337 339 336 330 327 328 329 331 329 326 327 328 327 330 336 336 336 333 332 329 332 330 329 328 331 333
345 346 347 344 344 337 329 327 342 337 343 341 338 327 336 342 336 336 339 338 332 328 327 327 329 328 327 326 329 329 330 334 336 336 332 331 330 330 329 330 329 328 331
345 345 347 332 333 331 335 343 341 334 341 340 332 328 334 343 337 334 338 339 335 331 328 328 328 327 328 326 329 329 329 335 335 334 333 329 329 330 329 328 330 330 326
345 345 346 336 327 327 340 340 335 334 331 331 329 328 328 339 338 333 337 337 338 333 330 328 328 328 329 326 329 329 330 333 335 333 331 330 331 329 327 331 330 328 330
345 345 344 344 340 333 326 324 325 326 325 324 325 325 325 330 340 335 335 337 338 336 332 329 327 329 329 327 328 329 332 334 335 332 331 329 331 328 325 327 327 327 328
346 345 344 342 342 342 343 339 324 322 322 322 322 324 323 327 339 338 338 338 337 337 334 331 328 327 328 328 328 329 334 334 334 332 326 327 330 328 325 324 328 328 328
349 347 345 342 342 343 342 343 339 336 327 326 333 338 326 338 340 341 340 338 337 337 337 333 330 328 330 336 331 332 335 334 333 332 326 327 328 327 325 324 327 326 327
346 348 346 343 343 343 343 343 343 342 341 341 340 341 339 337 340 339 339 339 335 336 337 336 332 331 336 336 336 336 335 333 333 332 327 325 327 327 327 325 324 324 325
341 346 347 344 343 344 345 345 344 344 342 342 341 342 340 340 339 341 338 340 340 339 337 338 337 336 334 334 335 335 333 332 332 332 330 325 326 327 327 325 325 325 323
331 344 347 346 345 345 346 347 345 344 343 342 341 339 340 341 340 339 338 340 340 338 336 337 337 337 332 331 333 334 332 331 332 332 331 327 325 327 327 325 323 324 324
326 336 346 346 346 347 346 347 344 344 342 341 341 339 340 340 339 338 338 339 337 336 337 337 335 335 332 333 334 333 332 332 331 332 331 330 326 326 326 326 322 324 322
321 325 339 341 346 347 346 347 343 345 343 341 340 339 338 339 338 338 337 338 337 336 336 336 336 336 335 334 333 331 330 332 332 331 330 330 329 326 325 326 322 322 323
320 320 321 327 341 345 347 347 346 346 343 342 340 339 338 339 339 338 338 337 333 334 336 336 336 334 335 332 331 331 331 331 332 331 330 329 329 329 325 325 324 322 323
326 323 320 320 321 327 344 346 344 346 343 343 341 339 339 339 339 337 336 334 336 336 335 335 335 333 332 332 331 331 331 331 331 331 330 330 329 328 327 325 324 322 323
327 327 326 321 321 325 336 344 342 341 342 343 341 340 339 338 338 337 336 335 335 338 335 334 333 332 331 331 330 330 329 329 330 330 330 330 327 326 327 326 324 323 324
327 328 328 328 321 328 334 342 340 343 340 339 341 341 340 338 338 338 337 336 335 332 327 324 327 331 331 330 326 325 323 323 325 328 330 328 328 328 326 327 325 325 323
325 325 327 328 327 325 332 336 341 343 341 341 342 342 339 338 336 336 334 334 333 331 323 323 324 329 330 330 329 328 328 329 327 327 327 327 325 325 326 326 326 324 324
323 325 325 327 329 326 328 336 340 341 341 340 338 341 340 338 334 335 335 334 334 332 326 326 327 327 328 326 329 328 326 326 327 325 325 325 326 326 326 325 325 323 323
320 323 326 324 325 329 319 333 339 341 339 338 338 338 336 336 335 331 335 334 334 331 330 328 330 330 329 327 325 327 326 325 327 326 324 324 324 325 324 324 323 323 323
317 319 323 326 330 331 321 329 336 337 340 341 339 340 337 335 335 330 335 335 334 328 330 330 329 329 328 328 327 327 326 325 325 325 325 325 325 322 323 323 321 322 322
313 317 320 325 327 330 330 326 336 337 337 338 336 337 338 333 334 334 335 333 333 332 330 329 327 328 327 327 326 326 325 325 325 323 323 324 323 323 323 322 322 322 323
Wind_Speed
11 17 17 16 15 14 10 8 7 6 5 3 3 3 4 4 6 6 6 7 7 7 8 9 7 7 8 9 10 11 12 14 16 19 22 22 17 17 16 18 20 22 24
13 17 19 15 13 12 10 9 7 6 6 7 6 5 3 4 4 4 6 6 6 7 8 6 7 7 9 10 10 10 11 14 16 21 19 21 20 17 16 16 19 20 23
16 17 20 18 14 11 11 9 8 7 8 7 6 7 6 5 5 3 4 5 6 6 7 8 6 7 9 10 10 10 11 13 17 20 15 14 19 18 15 15 17 19 21
17 16 18 18 16 11 9 9 9 9 10 9 6 6 7 6 4 2 2 3 4 6 6 6 6 6 9 11 12 12 13 16 20 18 13 13 14 17 16 14 15 18 20
16 15 16 17 17 15 10 9 9 10 11 9 7 7 6 6 5 4 2 1 3 4 4 5 5 5 8 10 12 13 14 17 20 12 14 16 13 17 15 13 14 16 19
15 15 19 17 15 15 12 11 10 9 10 9 8 7 5 5 5 5 4 2 1 2 3 3 4 4 6 8 11 12 14 18 15 12 13 16 17 18 19 17 13 14 16
12 12 15 18 16 15 14 14 13 12 11 10 9 9 8 7 5 5 5 3 2 1 1 2 3 3 4 6 9 11 13 17 14 12 16 15 18 16 15 17 19 13 13
11 12 12 18 18 15 12 14 13 12 11 11 9 9 9 9 7 7 6 6 4 3 2 2 2 2 2 4 7 9 13 15 11 12 16 15 16 20 20 20 20 22 18
9 11 11 13 17 17 16 17 15 14 14 13 12 11 12 11 9 7 8 7 7 4 3 3 2 1 1 2 5 8 12 17 12 11 12 14 18 15 17 19 19 19 20
11 12 12 11 13 15 16 17 16 16 15 15 14 13 13 13 11 9 10 9 8 7 5 4 4 3 2 0 3 5 10 15 9 9 11 15 13 12 13 13 15 18 17
11 13 14 14 13 12 11 12 14 14 15 14 14 13 13 12 10 10 9 11 10 9 7 5 5 4 3 2 2 5 12 7 7 6 10 12 12 13 15 17 16 17 17
12 13 14 15 15 15 13 13 14 12 13 13 12 10 12 9 14 13 12 12 12 11 10 8 7 5 3 1 2 6 7 5 5 4 8 11 10 14 13 13 11 14 15
14 14 15 16 15 15 14 14 12 12 12 12 11 11 11 10 13 13 15 13 14 14 11 11 9 5 4 5 3 1 2 2 4 3 8 9 10 12 13 15 11 13 14
17 17 16 17 17 17 15 16 17 15 17 14 16 15 14 16 14 13 15 11 14 14 12 12 11 8 7 6 5 3 2 1 1 5 8 7 8 10 11 14 14 11 14
17 17 17 18 18 18 18 15 13 12 12 13 19 19 16 13 14 15 13 11 17 17 16 17 14 11 10 6 5 4 3 3 2 4 7 5 6 7 8 12 10 11 12
16 18 17 20 20 19 20 20 18 17 13 13 16 14 12 14 16 14 14 16 20 14 15 15 14 11 9 7 7 4 4 6 5 5 5 6 3 4 4 7 10 9 11
14 15 22 23 21 22 24 23 23 20 16 14 14 14 16 16 15 15 16 21 17 17 16 12 10 10 11 6 5 5 7 7 5 7 7 7 6 1 2 4 8 6 10
12 15 17 16 21 25 26 25 25 19 19 16 14 13 14 16 15 17 21 20 17 18 15 13 10 8 5 5 4 6 6 7 7 6 7 7 6 4 0 2 4 7 5
12 13 16 18 22 27 31 30 24 24 22 20 16 14 13 16 15 18 17 16 13 8 11 9 6 6 6 5 5 4 5 6 7 6 7 6 7 6 4 2 2 4 3
14 14 16 18 19 23 32 32 30 27 29 22 19 17 15 14 15 14 11 8 8 10 10 11 10 8 6 5 5 5 8 8 7 9 5 7 6 7 5 4 4 3 4
13 15 15 16 17 18 28 30 31 31 30 26 23 17 16 15 15 14 11 11 10 10 10 9 8 7 7 7 7 6 11 10 7 5 6 6 4 5 5 6 4 5 5
19 19 17 18 18 23 25 30 32 32 29 28 24 22 20 18 19 17 14 15 13 12 11 10 8 9 8 8 5 7 7 6 7 7 7 8 7 7 5 9 5 5 7
20 23 21 20 18 21 26 28 29 30 27 30 28 26 21 19 19 18 16 14 14 13 11 10 10 8 8 10 8 6 4 4 3 6 9 10 8 7 7 8 8 5 8
21 23 24 25 17 15 25 25 30 31 33 33 31 29 26 21 21 21 18 16 15 17 12 10 9 9 8 9 12 7 7 4 2 1 2 2 3 5 6 7 9 8 9
20 22 24 26 14 5 15 24 27 30 29 28 27 25 26 25 22 23 19 17 16 13 11 9 9 8 9 8 6 6 6 4 5 3 2 1 2 1 4 7 3 6 6
22 21 24 25 16 8 3 17 25 26 30 27 25 27 30 29 27 24 22 19 15 12 12 12 9 9 8 7 7 5 4 4 5 4 2 2 2 1 1 7 8 9 8
Wind_Direction
194 185 180 180 181 183 180 181 178 172 172 167 142 113 105 105 110 95 77 67 69 77 84 72 66 69 54 49 49 48 38 42 40 34 27 12 36 31 24 29 31 25 22
181 182 180 178 186 192 189 188 188 188 182 160 156 138 156 123 115 94 71 69 73 81 88 79 71 67 57 50 43 41 41 42 49 50 29 10 12 36 30 28 27 32 23
169 177 180 180 194 195 196 198 191 181 165 183 169 161 180 168 157 126 75 61 66 83 84 80 81 68 47 41 41 40 44 48 50 43 35 25 3 34 30 24 27 31 26
167 179 179 185 192 196 192 193 191 181 182 188 185 178 183 187 188 186 118 80 73 87 93 92 81 65 43 40 40 43 50 50 49 36 23 27 25 30 26 28 30 32 33
170 179 186 188 190 197 201 200 198 187 193 202 205 188 193 197 194 206 186 118 84 94 107 90 85 63 49 46 40 49 52 55 44 27 6 19 36 27 26 28 35 32 33
172 178 206 192 195 200 207 197 193 203 202 211 214 213 195 204 210 217 213 192 133 121 118 102 97 69 56 50 47 52 56 59 39 360 24 28 33 33 35 33 35 36 36
173 182 217 197 197 200 207 202 201 200 208 218 215 212 197 223 217 220 232 219 215 189 152 137 115 84 55 51 48 49 50 54 36 13 23 37 36 33 31 35 33 38 35
183 185 206 202 206 206 200 214 210 201 202 215 219 221 208 207 229 225 233 231 237 240 216 179 150 114 75 52 48 47 53 63 36 38 28 19 43 38 34 35 39 27 34
195 191 200 208 205 207 203 213 216 220 223 223 223 222 215 223 232 228 229 235 237 240 244 215 197 198 138 64 46 51 52 56 43 36 36 46 52 38 35 38 39 34 35
198 200 203 208 209 211 218 218 222 227 229 231 229 227 224 222 234 230 231 234 233 237 235 230 219 211 192 118 45 54 55 49 40 31 33 47 48 30 33 39 31 31 33
207 205 203 203 209 209 216 236 222 219 224 226 226 225 224 222 249 243 238 238 237 236 235 228 219 215 212 214 52 60 59 42 42 38 34 49 49 25 40 47 44 35 36
230 218 210 206 202 201 205 225 241 226 231 230 228 234 226 218 232 243 231 235 239 236 234 229 226 213 130 285 338 59 58 41 35 24 28 45 43 30 37 46 42 39 35
242 234 221 212 209 208 202 208 222 207 224 227 226 222 228 208 237 253 244 237 233 230 234 240 228 212 204 212 231 183 110 28 37 312 3 36 44 29 42 35 33 42 37
237 229 228 216 211 208 209 217 217 214 216 207 231 217 219 221 220 232 240 216 230 230 218 229 211 201 206 206 218 209 255 330 22 303 327 20 47 34 44 36 47 43 43
256 223 229 228 218 215 213 222 214 227 231 224 241 230 212 223 225 234 249 223 235 232 222 220 220 200 220 193 205 231 264 287 249 271 302 336 42 42 48 38 46 32 58
258 247 227 229 229 225 219 222 226 205 222 224 233 243 234 232 226 226 243 228 235 230 225 224 223 220 188 188 208 239 260 262 265 267 284 316 5 45 51 53 45 46 48
262 259 235 237 224 234 234 223 232 221 215 222 224 224 225 232 229 231 236 242 235 228 230 231 227 194 184 188 222 246 251 256 264 264 261 289 311 6 44 78 50 59 59
280 268 259 248 238 235 238 235 226 218 226 218 221 225 229 228 228 231 233 240 246 242 217 200 192 178 146 219 232 239 256 262 260 239 250 262 257 229 187 134 69 70 59
300 283 268 256 250 241 235 234 232 221 219 221 217 219 221 224 231 237 240 250 245 211 165 174 156 179 179 208 224 231 248 261 246 243 249 261 270 245 233 189 139 107 99
317 308 291 277 260 244 234 233 229 224 219 216 219 215 215 220 221 227 219 222 220 195 191 166 173 170 174 196 211 209 222 233 239 244 243 251 275 281 250 244 192 164 154
335 323 309 294 260 247 233 228 231 223 221 215 218 212 211 214 209 192 196 199 192 229 193 187 188 181 174 197 238 273 268 259 264 243 248 253 265 290 268 227 214 193 184
353 340 324 308 286 228 234 232 227 226 218 218 209 205 208 201 202 186 192 189 185 219 200 203 210 191 217 197 215 255 260 263 244 241 244 239 262 269 251 239 220 217 206
358 353 340 318 303 268 219 236 229 228 219 212 211 203 196 194 199 186 188 192 181 210 218 214 226 233 235 221 223 236 274 285 207 255 249 256 262 272 261 242 238 239 231
354 352 350 331 292 288 237 227 229 225 218 218 211 204 204 193 197 197 189 189 195 208 216 231 221 225 231 246 224 218 237 273 305 259 309 288 255 256 253 247 244 239 243
349 349 349 349 311 302 257 218 232 229 220 211 212 200 198 192 200 201 194 192 199 218 203 222 214 221 229 219 197 207 216 243 249 276 237 228 232 302 259 183 215 255 246
347 341 342 349 329 297 237 232 228 229 228 225 219 212 190 200 197 199 195 195 192 195 198 206 208 203 205 198 195 190 206 244 246 276 264 159 133 50 232 215 251 261 269